Simultaneous Nadir Overpasses (SNOs) Predictions

Prediction of SNOs between NOAA-20 and PACE Satellite Orbit:

Table of predicted SNOs for the next 14.0 days since TLE Epoch: 6/1/2024
Index Date (NOAA-20) Time (NOAA-20) Lat,Lon (NOAA-20) SZA (NOAA-20 ) Date (PACE) Time (PACE) Lat,Lon (PACE) SZA (PACE ) Distance(km) Time Diff (sec)
1 06/01/2024 18:46:04 80.01,-140.14 60.06 06/01/2024 18:46:35 80.02,-140.27 60.07 2.56 31
2 06/01/2024 19:36:42 -79.81, 29.07 120.31 06/01/2024 19:35:39 -79.82, 28.94 120.26 2.76 63
3 06/03/2024 23:12:25 80.03, 153.08 59.85 06/03/2024 23:12:44 80.03, 153.11 59.83 0.50 19
4 06/04/2024 00:02:21 -78.36, -27.06 122.87 06/04/2024 00:01:08 -78.20, -28.07 122.87 28.71 73
5 06/06/2024 03:38:44 79.99, 86.87 59.55 06/06/2024 03:38:51 79.99, 86.91 59.54 0.93 7
6 06/08/2024 08:05:03 79.96, 20.63 59.30 06/08/2024 08:04:58 79.96, 20.57 59.31 1.38 5
7 06/10/2024 11:42:37 -81.14, 103.27 114.17 06/10/2024 11:43:49 -81.90, 102.92 114.10 85.28 72
8 06/10/2024 12:31:23 79.95, -45.93 59.14 06/10/2024 12:31:05 79.95, -45.91 59.14 0.38 18
9 06/12/2024 16:07:04 -80.13, 78.32 120.64 06/12/2024 16:08:07 -80.12, 78.48 120.70 3.23 63
10 06/12/2024 16:57:41 79.89,-111.93 58.90 06/12/2024 16:57:10 79.89,-111.97 58.92 0.80 31
11 06/14/2024 20:33:21 -80.05, 12.61 120.90 06/14/2024 20:34:11 -80.04, 12.60 120.93 0.43 50



Historial Predications of SNOs between NOAA-20 and PACE
